Regional Weather Roundup
Issued by NWS Charleston, WV

Home | Current Version | Previous Version | Graphics & Text | Print | Product List | Glossary Off
Versions: 1 2 3 4 5 6 7 8 9 10 11 12 13 14 15 16 17 18 19 20 21 22 23 24 25 26 27 28 29 30 31 32 33 34 35 36 37 38 39 40 41 42 43 44 45 46 47 48 49 50

000
ASUS41 KRLX 161410
RWRRLX
West Virginia Regional Weather Roundup
National Weather Service Charleston WV
1000 AM EDT WED AUG 16 2017

Note: "fair" indicates few or no clouds below 12,000 feet with no
significant weather and/or obstructions to visibility.

WVZ003-161500-
Northern Panhandle of West Virginia

CITY           SKY/WX    TMP DP  RH WIND       PRES   REMARKS
WHEELING       MOSUNNY   72  64  76 NE5       30.10R
$$

WVZ009-161500-
Northwest West Virginia

CITY           SKY/WX    TMP DP  RH WIND       PRES   REMARKS
PARKERSBURG    FOG       70  69  97 CALM      30.10S VSB 1/2
$$

WVZ006-161500-
Western West Virginia

CITY           SKY/WX    TMP DP  RH WIND       PRES   REMARKS
HUNTINGTON     SUNNY     75  71  87 SW3       30.07S
$$

WVZ015-161500-
West Central West Virginia

CITY           SKY/WX    TMP DP  RH WIND       PRES   REMARKS
CHARLESTON     FOG       72  70  93 CALM      30.08S VSB 1
$$

WVZ022-031-161500-
North Central West Virginia

CITY           SKY/WX    TMP DP  RH WIND       PRES   REMARKS
CLARKSBURG     CLOUDY    73  68  84 NW3       30.09S
MORGANTOWN     CLOUDY    72  67  84 CALM      30.10S HAZE
$$

WVZ025-035-042-045-161500-
Southern West Virginia

CITY           SKY/WX    TMP DP  RH WIND       PRES   REMARKS
BECKLEY        MOSUNNY   71  68  90 CALM      30.16S
LOGAN          FOG       72  72 100 CALM      30.11S VSB 1
BLUEFIELD      MOSUNNY   71  66  84 CALM      30.19R
LEWISBURG      CLOUDY    65  65  99 CALM      30.16S FOG
$$

WVZ047-161500-
Northern Mountains of West Virginia

CITY           SKY/WX    TMP DP  RH WIND       PRES   REMARKS
ELKINS         PTSUNNY   70  66  87 VRB3      30.13F FOG
$$

WVZ052-161500-
Eastern Panhandle of West Virginia

CITY           SKY/WX    TMP DP  RH WIND       PRES   REMARKS
MARTINSBURG    CLOUDY    72  69  90 CALM      30.03S
PETERSBURG     MOSUNNY   76  71  86 CALM      30.07S
$$



USA.gov is the U.S. government's official web portal to all federal, state and local government web resources and services.